When you browse on this site, cookies collect data to enhance your experience and personalize the content and advertising you see.
Visit our Privacy Policy to learn more. By continuing to use the site, you agree to this use of cookies and data.
  • In Hungary
  • List of Countries
  • For 7 days
  • Water Temperature
  • Satellite Maps
  • Weather Map
  • News
  • Weather Widgets
  • user-avatar
    Login

    Hourly Weather Peabiru

    Today, 24 January, Thursday

    Time Temperature Precipitation Wind Pressure Humidity
    00:00 +25°C° 0 mm 1 mps 715 mmHg 89%
    01:00 +25°C° 0 mm 2 mps 715 mmHg 90%
    02:00 +24°C° 0 mm 2 mps 715 mmHg 90%
    03:00 +24°C° 0 mm 2 mps 714 mmHg 90%
    04:00 +24°C° 0 mm 2 mps 714 mmHg 91%
    05:00 +23°C° 0 mm 2 mps 714 mmHg 91%
    06:00 +23°C° 0 mm 2 mps 714 mmHg 92%
    07:00 +25°C° 0 mm 2 mps 715 mmHg 86%
    08:00 +27°C° 0 mm 3 mps 716 mmHg 81%
    09:00 +28°C° 0 mm 3 mps 717 mmHg 75%
    10:00 +30°C° 0 mm 3 mps 717 mmHg 68%
    11:00 +33°C° 0 mm 3 mps 717 mmHg 61%
    12:00 +35°C° 0 mm 2 mps 717 mmHg 54%
    13:00 +35°C° 0 mm 2 mps 716 mmHg 52%
    14:00 +36°C° 0 mm 2 mps 716 mmHg 50%
    15:00 +36°C° 0 mm 1 mps 715 mmHg 48%
    16:00 +35°C° 0 mm 1 mps 715 mmHg 53%
    17:00 +34°C° 0 mm 1 mps 715 mmHg 57%
    18:00 +34°C° 0 mm 2 mps 714 mmHg 62%
    19:00 +31°C° 1.6 mm 1 mps 714 mmHg 70%
    20:00 +29°C° 1.6 mm 1 mps 714 mmHg 77%
    21:00 +26°C° 1.6 mm 1 mps 714 mmHg 85%
    22:00 +26°C° 1.8 mm 1 mps 715 mmHg 85%
    23:00 +26°C° 1.8 mm 1 mps 715 mmHg 86%

    Tomorrow, 25 January, Friday

    Time Temperature Precipitation Wind Pressure Humidity
    00:00 +26°C° 1.8 mm 1 mps 716 mmHg 87%
    01:00 +25°C° 0.1 mm 2 mps 715 mmHg 88%
    02:00 +25°C° 0.1 mm 3 mps 715 mmHg 89%
    03:00 +23°C° 0.1 mm 4 mps 714 mmHg 90%
    04:00 +24°C° 0 mm 3 mps 714 mmHg 91%
    05:00 +22°C° 0 mm 3 mps 715 mmHg 91%
    06:00 +22°C° 0 mm 3 mps 715 mmHg 92%
    07:00 +24°C° 0 mm 3 mps 715 mmHg 85%
    08:00 +25°C° 0 mm 4 mps 716 mmHg 79%
    09:00 +26°C° 0 mm 4 mps 717 mmHg 73%
    10:00 +28°C° 0 mm 4 mps 717 mmHg 67%
    11:00 +30°C° 0 mm 4 mps 717 mmHg 61%
    12:00 +33°C° 0 mm 3 mps 717 mmHg 55%
    13:00 +34°C° 0 mm 3 mps 716 mmHg 53%
    14:00 +34°C° 0 mm 2 mps 716 mmHg 51%
    15:00 +35°C° 0 mm 2 mps 715 mmHg 50%
    16:00 +34°C° 0.2 mm 2 mps 715 mmHg 56%
    17:00 +32°C° 0.2 mm 2 mps 714 mmHg 63%
    18:00 +31°C° 0.2 mm 2 mps 714 mmHg 69%
    19:00 +29°C° 0.1 mm 2 mps 714 mmHg 74%
    20:00 +27°C° 0.1 mm 2 mps 714 mmHg 79%
    21:00 +25°C° 0.1 mm 1 mps 715 mmHg 84%
    22:00 +25°C° 0 mm 2 mps 715 mmHg 85%
    23:00 +24°C° 0 mm 2 mps 715 mmHg 86%

    Day after tomorrow, 26 January, Saturday

    Time Temperature Precipitation Wind Pressure Humidity
    00:00 +23°C° 0 mm 2 mps 715 mmHg 87%
    01:00 +23°C° 0 mm 2 mps 715 mmHg 88%
    02:00 +23°C° 0 mm 2 mps 714 mmHg 88%
    03:00 +21°C° 0 mm 2 mps 714 mmHg 89%
    04:00 +21°C° 0 mm 3 mps 714 mmHg 89%
    05:00 +20°C° 0 mm 3 mps 714 mmHg 89%
    06:00 +20°C° 0 mm 3 mps 714 mmHg 89%
    07:00 +21°C° 0 mm 3 mps 715 mmHg 84%
    08:00 +24°C° 0 mm 3 mps 716 mmHg 79%
    09:00 +25°C° 0 mm 4 mps 717 mmHg 74%
    10:00 +27°C° 0 mm 3 mps 717 mmHg 68%
    11:00 +29°C° 0 mm 3 mps 717 mmHg 62%
    12:00 +31°C° 0 mm 3 mps 717 mmHg 56%
    13:00 +32°C° 0 mm 2 mps 716 mmHg 53%
    14:00 +34°C° 0 mm 2 mps 716 mmHg 50%
    15:00 +34°C° 0 mm 1 mps 715 mmHg 47%
    16:00 +34°C° 0 mm 2 mps 715 mmHg 52%
    17:00 +32°C° 0 mm 2 mps 714 mmHg 57%
    18:00 +31°C° 0 mm 2 mps 714 mmHg 62%
    19:00 +28°C° 0.1 mm 2 mps 714 mmHg 70%
    20:00 +26°C° 0.1 mm 2 mps 715 mmHg 77%
    21:00 +24°C° 0.1 mm 2 mps 715 mmHg 85%
    22:00 +23°C° 0 mm 2 mps 715 mmHg 85%
    23:00 +23°C° 0 mm 2 mps 716 mmHg 86%

    27 January, Sunday

    Time Temperature Precipitation Wind Pressure Humidity
    00:00 +21°C° 0 mm 3 mps 716 mmHg 87%
    01:00 +21°C° 0 mm 3 mps 715 mmHg 87%
    02:00 +21°C° 0 mm 3 mps 715 mmHg 86%
    03:00 +20°C° 0 mm 3 mps 714 mmHg 86%
    04:00 +20°C° 0 mm 3 mps 715 mmHg 87%
    05:00 +20°C° 0 mm 3 mps 715 mmHg 87%
    06:00 +20°C° 0 mm 4 mps 715 mmHg 87%
    07:00 +21°C° 0 mm 4 mps 716 mmHg 82%
    08:00 +23°C° 0 mm 4 mps 716 mmHg 77%
    09:00 +26°C° 0 mm 4 mps 717 mmHg 72%
    10:00 +27°C° 0.1 mm 5 mps 717 mmHg 68%
    11:00 +28°C° 0.1 mm 5 mps 717 mmHg 63%
    12:00 +30°C° 0.1 mm 5 mps 717 mmHg 58%
    13:00 +30°C° 0.7 mm 5 mps 717 mmHg 62%
    14:00 +29°C° 0.7 mm 4 mps 716 mmHg 65%
    15:00 +29°C° 0.7 mm 4 mps 716 mmHg 68%
    16:00 +29°C° 0.3 mm 4 mps 716 mmHg 69%
    17:00 +28°C° 0.3 mm 3 mps 716 mmHg 71%
    18:00 +28°C° 0.3 mm 3 mps 716 mmHg 72%
    19:00 +26°C° 0.1 mm 3 mps 716 mmHg 77%
    20:00 +25°C° 0.1 mm 3 mps 716 mmHg 82%
    21:00 +23°C° 0.1 mm 2 mps 717 mmHg 87%
    22:00 +23°C° 0 mm 2 mps 717 mmHg 88%
    23:00 +21°C° 0 mm 2 mps 717 mmHg 89%

    28 January, Monday

    Time Temperature Precipitation Wind Pressure Humidity
    00:00 +21°C° 0 mm 2 mps 717 mmHg 90%
    01:00 +20°C° 0 mm 2 mps 717 mmHg 92%
    02:00 +20°C° 0 mm 2 mps 716 mmHg 93%
    03:00 +20°C° 0 mm 2 mps 716 mmHg 94%
    04:00 +19°C° 0 mm 2 mps 716 mmHg 93%
    05:00 +19°C° 0 mm 2 mps 716 mmHg 93%
    06:00 +19°C° 0 mm 2 mps 716 mmHg 93%
    07:00 +21°C° 0 mm 3 mps 717 mmHg 86%
    08:00 +24°C° 0 mm 3 mps 718 mmHg 79%
    09:00 +26°C° 0 mm 4 mps 718 mmHg 72%
    10:00 +28°C° 0.1 mm 5 mps 718 mmHg 66%
    11:00 +29°C° 0.1 mm 5 mps 719 mmHg 60%
    12:00 +32°C° 0.1 mm 6 mps 719 mmHg 54%
    13:00 +32°C° 0.2 mm 5 mps 718 mmHg 55%
    14:00 +32°C° 0.2 mm 5 mps 718 mmHg 55%
    15:00 +32°C° 0.2 mm 5 mps 717 mmHg 56%
    16:00 +30°C° 0.3 mm 5 mps 717 mmHg 61%
    17:00 +29°C° 0.3 mm 4 mps 717 mmHg 67%
    18:00 +28°C° 0.3 mm 3 mps 717 mmHg 72%
    19:00 +27°C° 0 mm 2 mps 717 mmHg 77%
    20:00 +25°C° 0 mm 2 mps 717 mmHg 82%
    21:00 +24°C° 0 mm 1 mps 718 mmHg 87%
    22:00 +24°C° 0 mm 1 mps 718 mmHg 88%
    23:00 +23°C° 0 mm 1 mps 718 mmHg 89%

    29 January, Tuesday

    Time Temperature Precipitation Wind Pressure Humidity
    00:00 +23°C° 0 mm 1 mps 718 mmHg 91%
    01:00 +23°C° 0 mm 1 mps 718 mmHg 92%
    02:00 +22°C° 0 mm 1 mps 717 mmHg 93%
    03:00 +22°C° 0 mm 1 mps 717 mmHg 95%
    04:00 +22°C° 0 mm 1 mps 717 mmHg 95%
    05:00 +22°C° 0 mm 1 mps 717 mmHg 95%
    06:00 +21°C° 0 mm 1 mps 717 mmHg 96%
    07:00 +23°C° 0 mm 2 mps 718 mmHg 89%
    08:00 +25°C° 0 mm 2 mps 718 mmHg 82%
    09:00 +27°C° 0 mm 2 mps 719 mmHg 76%
    10:00 +29°C° 0 mm 2 mps 719 mmHg 68%
    11:00 +31°C° 0 mm 3 mps 719 mmHg 61%
    12:00 +34°C° 0 mm 3 mps 719 mmHg 54%
    13:00 +34°C° 0 mm 3 mps 718 mmHg 52%
    14:00 +35°C° 0 mm 3 mps 718 mmHg 51%
    15:00 +35°C° 0 mm 3 mps 717 mmHg 50%
    16:00 +34°C° 0 mm 3 mps 717 mmHg 54%
    17:00 +34°C° 0 mm 2 mps 716 mmHg 57%
    18:00 +32°C° 0 mm 2 mps 716 mmHg 61%
    19:00 +30°C° 0 mm 1 mps 716 mmHg 65%
    20:00 +28°C° 0 mm 1 mps 716 mmHg 70%
    21:00 +24°C° 0 mm 0 mps 716 mmHg 74%
    22:00 +23°C° 0 mm 0 mps 717 mmHg 75%
    23:00 +23°C° 0 mm 0 mps 717 mmHg 77%
    Show more